Hourly Data Report for February 20, 2006

TORONTO CITY
ONTARIO

43°40'00.000" N
79°24'00.000" W
112.50 m
6158355
71508
XTO

Download Data

Hourly Data (February 2006)
Hourly Data Report for February 20, 2006
TIME
LST
Temp Definition
°C
Dew Point Definition
°C
Rel Hum Definition
%
Precip. Amount Definition
mm

Wind Dir Definition
10's deg

Wind Spd Definition
km/h
Visibility Definition
km
Stn Press Definition
kPa
Hmdx Definition


Wind Chill Definition


Weather Definition


00:00 -7.3 -13.1 63   LegendMM LegendMM   100.61     LegendNANA
01:00 -7.4 -12.9 65   LegendMM LegendMM   100.60     LegendNANA
02:00 -7.5 -12.7 66   LegendMM LegendMM   100.59     LegendNANA
03:00 -7.5 -12.8 66   LegendMM LegendMM   100.51     LegendNANA
04:00 -7.8 -12.8 67   LegendMM LegendMM   100.46     LegendNANA
05:00 -8.4 -13.0 69   LegendMM LegendMM   100.44     LegendNANA
06:00 -8.8 -13.1 71   LegendMM LegendMM   100.45     LegendNANA
07:00 -8.9 -13.2 71   LegendMM LegendMM   100.43     LegendNANA
08:00 -8.7 -13.2 70   LegendMM LegendMM   100.42     LegendNANA
09:00 -7.2 -12.4 66   LegendMM LegendMM   100.43     LegendNANA
10:00 -5.7 -11.9 62   LegendMM LegendMM   100.40     LegendNANA
11:00 -4.3 -12.2 54   LegendMM LegendMM   100.39     LegendNANA
12:00 -3.3 -12.6 49   LegendMM LegendMM   100.37     LegendNANA
13:00 -3.0 -12.6 47   LegendMM LegendMM   100.30     LegendNANA
14:00 -2.8 -12.6 47   LegendMM LegendMM   100.22     LegendNANA
15:00 -3.0 -12.3 49   LegendMM LegendMM   100.12     LegendNANA
16:00 -2.6 -12.1 48   LegendMM LegendMM   100.08     LegendNANA
17:00 -2.7 -11.8 50   LegendMM LegendMM   100.07     LegendNANA
18:00 -2.8 -11.2 52   LegendMM LegendMM   100.08     LegendNANA
19:00 -2.9 -10.3 57   LegendMM LegendMM   100.06     LegendNANA
20:00 -3.3 -9.4 63   LegendMM LegendMM   100.04     LegendNANA
21:00 -3.6 -8.6 68   LegendMM LegendMM   99.98     LegendNANA
22:00 -3.4 -8.4 68   LegendMM LegendMM   99.95     LegendNANA
23:00 -3.0 -8.1 68   LegendMM LegendMM   99.89     LegendNANA

Notes on Data Quality.

Legend

  • E = Estimated
  • M = Missing
  • NA = Not Available*
  • [empty] = Indicates an unobserved value
Date modified: